Skip Page Navigation
NASA JPL Caltech
NASA Logo - Jet Propulsion Laboratory + View the NASA Portal
+ Near-Earth Object (NEO) Program
Search JPL
JPL Home Earth Solar System Stars & Galaxies Technology
JPL Solar System Dynamics
BODIES ORBITS EPHEMERIDES TOOLS PHYSICAL DATA DISCOVERY FAQ SITE MAP
JPL Small-Body Database Browser
Search: [ help ]  
14438 MacLean (1992 HC2)
Classification: Main-belt Asteroid          SPK-ID: 2014438
Ephemeris | Orbit Diagram | Orbital Elements | Physical Parameters | Discovery Circumstances ]

[ hide orbit diagram ]
Orbit Diagram
Note: Make sure you have Java enabled on your browser to see the applet. This applet is provided as a 3D orbit visualization tool. The applet was implemented using 2-body methods, and hence should not be used for determining accurate long-term trajectories (over several years or decades) or planetary encounter circumstances. For accurate long-term ephemerides, please instead use our Horizons system.
Orbit Viewer

Additional Notes: the orbits shown in the applet are color coded. The planets are white lines, and the asteroid/comet is a blue line. The bright white line indicates the portion of the orbit that is above the ecliptic plane, and the darker portion is below the ecliptic plane. Likewise for the asteroid/comet orbit, the light blue indicates the portion above the ecliptic plane, and the dark blue the portion below the ecliptic plane.

Orbit Viewer applet originally written and kindly provided by Osamu Ajiki (AstroArts), and further modified by Ron Baalke (JPL).


Orbital Elements at Epoch 2456400.5 (2013-Apr-18.0) TDB
Reference: MPO250355 (heliocentric ecliptic J2000)
 Element Value Uncertainty (1-sigma)   Units 
e 0.0957801 n/a  
a 2.9059842 n/a AU
q 2.6276487 n/a AU
i 3.12554 n/a deg
node 130.14548 n/a deg
peri 229.27147 n/a deg
M 313.19832 n/a deg
tp 2456635.7324556
(2013-Dec-09.23245560)
n/a JED
period 1809.4154744
4.95
n/a
n/a
d
yr
n 0.19895928 n/a deg/d
Q 3.1843197 n/a AU
  Orbit Determination Parameters
   # obs. used (total)      837  
   first obs. used      1992-??-??  
   last obs. used      2012-09-12  
   # oppositions      15  
   planetary ephem.      DE403  
   condition code      0  
   fit RMS      0.57  
   data source      MPC:mpn  
   producer      MPCLINUX  

Additional Information
 T_jup = 3.276 

Ephemeris | Orbit Diagram | Orbital Elements | Physical Parameters | Discovery Circumstances ]

Physical Parameter Table
Parameter Symbol Value Units Sigma Reference Notes
absolute magnitude H 13.7 mag n/a PDS3 (MPC 39830)  

14438 MacLean           Discovered 1992 Apr. 27 by Spacewatch at Kitt Peak.
Steven Glenwood MacLean (b. 1954), selected as a Canadian astronaut in 1983, is an expert in laser physics and space vision systems. He flew on space shuttle mission STS-52.
NOTE: some special characters may not display properly (any characters within {} are an attempt to place the proper accent above a character)
Reference: 20030614/MPCPages.arcLast Updated: 2005-04-26

Alternate Designations
 1992 HC2 = 1999 XE2 
Ephemeris | Orbit Diagram | Orbital Elements | Physical Parameters | Discovery Circumstances ]
ABOUT SSD CREDITS/AWARDS PRIVACY/COPYRIGHT GLOSSARY LINKS
FirstGov 2013-May-22 08:54 UT
(server date/time)  
NASA Home Page
Site Manager:   Donald K. Yeomans
Webmaster  Alan B. Chamberlin